| time (UTC) | temp C | wind direction | speed KPH | gust KPH | rain 1hr cm | rain 24hr cm | rain mn cm | humidity % | barometer mb |
| 20260504214555 | 26 | 0 | 1.6 | 8.0 | 0.00 | 0.00 | 0.00 | 63 | 1009.9 |
| 20260504213117 | 26 | 124 | 1.6 | 8.0 | 0.00 | 0.00 | 0.00 | 63 | 1009.8 |
| 20260504211556 | 27 | 123 | 1.6 | 6.4 | 0.00 | 0.00 | 0.00 | 61 | 1010.3 |
| 20260504210101 | 26 | 0 | 1.6 | 4.8 | 0.00 | 0.00 | 0.00 | 62 | 1010.5 |
| 20260504204604 | 26 | 105 | 1.6 | 9.7 | 0.00 | 0.00 | 0.00 | 61 | 1010.9 |
| 20260504203057 | 26 | 0 | 1.6 | 8.0 | 0.00 | 0.00 | 0.00 | 60 | 1011.0 |
| 20260504201603 | 27 | 277 | 1.6 | 4.8 | 0.00 | 0.00 | 0.00 | 59 | 1011.3 |
| 20260504200108 | 26 | 213 | 1.6 | 6.4 | 0.00 | 0.00 | 0.00 | 62 | 1011.5 |
| 20260504194555 | 26 | 140 | 1.6 | 9.7 | 0.00 | 0.00 | 0.00 | 62 | 1011.8 |
| 20260504193052 | 26 | 121 | 1.6 | 6.4 | 0.00 | 0.00 | 0.00 | 62 | 1012.2 |
| 20260504191551 | 26 | 0 | 1.6 | 11.3 | 0.00 | 0.00 | 0.00 | 60 | 1012.0 |
| 20260504190053 | 26 | 158 | 1.6 | 8.0 | 0.00 | 0.00 | 0.00 | 60 | 1012.1 |
| 20260504184559 | 26 | 89 | 1.6 | 8.0 | 0.00 | 0.00 | 0.00 | 60 | 1012.6 |
| 20260504183059 | 26 | 0 | 3.2 | 11.3 | 0.00 | 0.00 | 0.00 | 60 | 1012.6 |
| 20260504181554 | 25 | 230 | 1.6 | 8.0 | 0.00 | 0.00 | 0.00 | 61 | 1012.9 |
| 20260504180052 | 25 | 89 | 1.6 | 8.0 | 0.00 | 0.00 | 0.00 | 60 | 1013.0 |
| 20260504174556 | 25 | 0 | 1.6 | 9.7 | 0.00 | 0.00 | 0.00 | 61 | 1013.3 |
| 20260504173059 | 25 | 184 | 1.6 | 6.4 | 0.00 | 0.00 | 0.00 | 61 | 1013.3 |
| 20260504171558 | 25 | 234 | 1.6 | 9.7 | 0.00 | 0.00 | 0.00 | 61 | 1013.6 |
| 20260504100103 | 15 | 0 | 0.0 | 0.0 | 0.00 | 0.00 | 0.00 | 78 | 1014.5 |
| 20260504081556 | 16 | 0 | 0.0 | 0.0 | 0.00 | 0.00 | 0.00 | 76 | 1014.8 |
| 20260504044554 | 18 | 0 | 0.0 | 3.2 | 0.00 | 0.00 | 0.00 | 68 | 1017.0 |
| 20260504043058 | 18 | 0 | 0.0 | 4.8 | 0.00 | 0.00 | 0.00 | 68 | 1017.1 |
| 20260504041553 | 18 | 0 | 0.0 | 6.4 | 0.00 | 0.00 | 0.00 | 67 | 1017.4 |
| 20260504040056 | 18 | 0 | 0.0 | 3.2 | 0.00 | 0.00 | 0.00 | 65 | 1017.2 |
| 20260504034552 | 18 | 0 | 0.0 | 3.2 | 0.00 | 0.00 | 0.00 | 64 | 1017.2 |
| 20260504033102 | 19 | 191 | 0.0 | 4.8 | 0.00 | 0.00 | 0.00 | 63 | 1017.1 |
| 20260504031554 | 19 | 0 | 0.0 | 3.2 | 0.00 | 0.00 | 0.00 | 62 | 1017.0 |
| 20260504030058 | 20 | 0 | 0.0 | 1.6 | 0.00 | 0.00 | 0.00 | 62 | 1017.0 |
| 20260504024554 | 20 | 0 | 0.0 | 0.0 | 0.00 | 0.00 | 0.00 | 62 | 1016.8 |
| 20260504023055 | 20 | 0 | 0.0 | 0.0 | 0.00 | 0.00 | 0.00 | 63 | 1016.6 |
| 20260504021558 | 21 | 0 | 0.0 | 0.0 | 0.00 | 0.00 | 0.00 | 59 | 1016.6 |
| 20260504020128 | 21 | 0 | 0.0 | 0.0 | 0.00 | 0.00 | 0.00 | 59 | 1016.6 |
| 20260504014604 | 21 | 0 | 0.0 | 1.6 | 0.00 | 0.00 | 0.00 | 59 | 1016.4 |
| 20260504013105 | 22 | 0 | 0.0 | 0.0 | 0.00 | 0.00 | 0.00 | 58 | 1016.4 |
| 20260504011554 | 22 | 0 | 0.0 | 0.0 | 0.00 | 0.00 | 0.00 | 57 | 1016.3 |
| 20260504010057 | 22 | 0 | 0.0 | 3.2 | 0.00 | 0.00 | 0.00 | 55 | 1016.3 |
| 20260504004628 | 23 | 0 | 0.0 | 0.0 | 0.00 | 0.00 | 0.00 | 54 | 1016.4 |
| 20260504003100 | 23 | 0 | 0.0 | 0.0 | 0.00 | 0.00 | 0.00 | 51 | 1016.4 |
| 20260504001621 | 23 | 0 | 0.0 | 1.6 | 0.00 | 0.00 | 0.00 | 50 | 1016.4 |
| 20260504000105 | 23 | 0 | 0.0 | 1.6 | 0.00 | 0.00 | 0.00 | 48 | 1016.7 |
| 20260503234605 | 24 | 0 | 0.0 | 3.2 | 0.00 | 0.00 | 0.00 | 46 | 1016.8 |
| 20260503233103 | 23 | 0 | 0.0 | 4.8 | 0.00 | 0.00 | 0.00 | 45 | 1016.7 |
| 20260503231555 | 24 | 0 | 0.0 | 3.2 | 0.00 | 0.00 | 0.00 | 47 | 1017.1 |
| 20260503230111 | 25 | 100 | 0.0 | 4.8 | 0.00 | 0.00 | 0.00 | 45 | 1016.9 |
| 20260503224606 | 25 | 360 | 0.0 | 4.8 | 0.00 | 0.00 | 0.00 | 44 | 1016.9 |
| 20260503223057 | 25 | 99 | 1.6 | 4.8 | 0.00 | 0.00 | 0.00 | 44 | 1017.1 |
| 20260503221604 | 25 | 211 | 0.0 | 4.8 | 0.00 | 0.00 | 0.00 | 43 | 1017.3 |
| 20260503220054 | 25 | 0 | 0.0 | 6.4 | 0.00 | 0.00 | 0.00 | 45 | 1017.4 |